Date String (YYYY-MM-DD hh:mm:ss) UTC,Instrument flags,Ambient pressure (hPa),Sample flow (lpm),Bypass flow (lpm),Sample temperature (°C),Ambient temperature (°C),ASC tube jacket temperature (°C),LED temperature (°C),Box temperature (°C),Sample RH (%),Span deviation,Mass concentration (μg/m³),Mass concentration (μg/m³),Mass concentration (μg/m³)
DateTimeUTC,F1_M11,P_M11,Q1_M11,Q2_M11,T1_M11,T2_M11,T3_M11,T4_M11,T5_M11,U1_M11,ZSPAN_M11,X0_M11,X2_M11,X1_M11
2021-12-01 10:00:00,,0827.0,5.00,0.00,26.4,25.5,00.0,35.3,28.1,11.1,0000.0,0011.92,0004.10,0002.82
2021-12-01 10:01:00,,0827.2,4.99,0.00,26.4,25.5,00.0,35.3,28.2,11.0,0000.0,0012.05,0004.21,0002.94
2021-12-01 10:02:00,,0827.1,4.99,0.00,26.4,25.5,00.0,35.3,28.2,10.8,0000.0,0012.54,0004.26,0003.03
2021-12-01 10:03:00,,0827.1,5.00,0.00,26.4,25.5,00.0,35.3,28.2,10.6,0000.0,0012.66,0004.34,0003.12
2021-12-01 10:04:00,,0827.5,5.00,0.00,26.4,25.5,00.0,35.3,28.1,10.5,0000.0,0012.97,0004.38,0003.14
2021-12-01 10:05:00,,0827.2,5.01,0.00,26.4,25.5,00.0,35.3,28.2,10.5,0000.0,0013.93,0004.33,0003.04
2021-12-01 10:06:00,,0827.1,5.00,0.00,26.4,25.5,00.0,35.3,28.2,10.8,0000.0,0014.61,0004.31,0002.94
2021-12-01 10:07:00,,0827.1,5.00,0.00,26.4,25.5,00.0,35.3,28.2,10.7,0000.0,0014.67,0004.29,0002.92
2021-12-01 10:08:00,,0827.2,5.01,0.00,26.4,25.5,00.0,35.3,28.2,10.5,0000.0,0013.93,0004.24,0002.83
2021-12-01 10:09:00,,0827.2,5.00,0.00,26.4,25.5,00.0,35.3,28.2,10.9,0000.0,0013.49,0004.16,0002.74
2021-12-01 10:10:00,,0827.2,4.99,0.00,26.4,25.5,00.0,35.3,28.2,10.8,0000.0,0014.19,0004.13,0002.67
2021-12-01 10:11:00,,0827.2,5.00,0.00,26.4,25.5,00.0,35.3,28.2,10.5,0000.0,0014.12,0004.02,0002.55
2021-12-01 10:12:00,,0827.1,5.00,0.00,26.4,25.5,00.0,35.3,28.2,10.7,0000.0,0013.68,0003.95,0002.47
2021-12-01 10:13:00,,0827.1,4.99,0.00,26.4,25.5,00.0,35.3,28.2,10.7,0000.0,0012.95,0003.89,0002.43
2021-12-01 10:14:00,,0827.0,5.01,0.00,26.4,25.5,00.0,35.3,28.2,10.6,0000.0,0012.73,0003.85,0002.42
2021-12-01 10:15:00,,0827.1,4.99,0.00,26.4,25.5,00.0,35.3,28.2,10.5,0000.0,0012.63,0003.85,0002.42
2021-12-01 10:16:00,,0827.1,4.99,0.00,26.4,25.5,00.0,35.3,28.2,10.5,0000.0,0011.88,0003.87,0002.42
2021-12-01 10:17:00,,0827.2,5.01,0.00,26.4,25.5,00.0,35.3,28.2,10.5,0000.0,0011.20,0003.87,0002.41
2021-12-01 10:18:00,,0827.2,5.01,0.00,26.4,25.5,00.0,35.3,28.2,10.6,0000.0,0010.52,0003.85,0002.39
2021-12-01 10:19:00,,0827.2,4.99,0.00,26.4,25.5,00.0,35.3,28.2,10.6,0000.0,0009.97,0003.79,0002.38
2021-12-01 10:20:00,,0827.2,5.01,0.00,26.4,25.5,00.0,35.3,28.2,10.5,0000.0,0009.97,0003.77,0002.35
2021-12-01 10:21:00,,0827.2,4.99,0.00,26.4,25.5,00.0,35.3,28.2,10.5,0000.0,0009.25,0003.68,0002.27
2021-12-01 10:22:00,,0827.2,5.01,0.00,26.4,25.5,00.0,35.3,28.2,10.6,0000.0,0009.08,0003.72,0002.26
2021-12-01 10:23:00,,0827.2,5.00,0.00,26.4,25.5,00.0,35.3,28.2,10.6,0000.0,0009.32,0003.75,0002.27
2021-12-01 10:24:00,,0827.2,4.99,0.00,26.4,25.5,00.0,35.3,28.2,10.6,0000.0,0009.28,0003.70,0002.23
2021-12-01 10:25:00,,0827.2,5.01,0.00,26.4,25.5,00.0,35.3,28.2,10.5,0000.0,0010.12,0003.69,0002.20
2021-12-01 10:26:00,,0827.2,4.99,0.00,26.4,25.5,00.0,35.3,28.2,10.5,0000.0,0010.15,0003.70,0002.21
2021-12-01 10:27:00,,0827.2,5.00,0.00,26.4,25.5,00.0,35.3,28.2,10.4,0000.0,0010.46,0003.65,0002.21
2021-12-01 10:28:00,,0827.2,5.00,0.00,26.4,25.5,00.0,35.3,28.1,10.5,0000.0,0010.37,0003.63,0002.21
2021-12-01 10:29:00,,0827.2,5.01,0.00,26.4,25.5,00.0,35.3,28.1,10.5,0000.0,0010.17,0003.57,0002.18
2021-12-01 10:30:00,,0827.2,4.99,0.00,26.4,25.5,00.0,35.3,28.2,10.4,0000.0,0010.22,0003.58,0002.15
2021-12-01 10:31:00,,0827.2,5.00,0.00,26.4,25.5,00.0,35.3,28.2,10.3,0000.0,0010.10,0003.54,0002.12
2021-12-01 10:32:00,,0827.2,5.01,0.00,26.4,25.5,00.0,35.3,28.2,10.2,0000.0,0010.04,0003.51,0002.06
2021-12-01 10:33:00,,0827.2,5.00,0.00,26.4,25.5,00.0,35.3,28.2,10.5,0000.0,0010.22,0003.45,0002.03
2021-12-01 10:34:00,,0827.2,5.00,0.00,26.4,25.5,00.0,35.3,28.2,10.5,0000.0,0010.04,0003.37,0002.00
2021-12-01 10:35:00,,0827.2,5.01,0.00,26.4,25.5,00.0,35.3,28.2,10.4,0000.0,0010.42,0003.34,0001.97
2021-12-01 10:36:00,,0827.2,5.00,0.00,26.4,25.5,00.0,35.3,28.2,10.4,0000.0,0009.73,0003.35,0001.95
2021-12-01 10:37:00,,0827.3,5.01,0.00,26.4,25.5,00.0,35.3,28.2,10.4,0000.0,0009.62,0003.35,0001.93
2021-12-01 10:38:00,,0827.3,5.00,0.00,26.4,25.5,00.0,35.4,28.2,10.4,0000.0,0010.32,0003.36,0001.94
2021-12-01 10:39:00,,0827.3,5.01,0.00,26.4,25.5,00.0,35.3,28.2,10.4,0000.0,0010.66,0003.35,0001.94
2021-12-01 10:40:00,,0827.3,4.99,0.00,26.4,25.5,00.0,35.3,28.2,10.3,0000.0,0011.06,0003.35,0001.93
2021-12-01 10:41:00,,0827.2,5.01,0.00,26.4,25.5,00.0,35.4,28.2,10.4,0000.0,0011.75,0003.35,0001.93
2021-12-01 10:42:00,,0827.3,4.99,0.00,26.4,25.5,00.0,35.4,28.2,10.3,0000.0,0011.80,0003.34,0001.95
2021-12-01 10:43:00,,0827.3,4.99,0.00,26.4,25.5,00.0,35.4,28.2,10.2,0000.0,0011.96,0003.33,0001.97
2021-12-01 10:44:00,,0827.3,5.01,0.00,26.4,25.5,00.0,35.4,28.2,10.1,0000.0,0011.45,0003.27,0001.89
2021-12-01 10:45:00,,0827.3,4.98,0.00,26.4,25.5,00.0,35.4,28.1,10.0,0000.0,0011.23,0003.19,0001.81
2021-12-01 10:46:00,,0827.3,5.00,0.00,26.4,25.5,00.0,35.4,28.1,10.2,0000.0,0010.54,0003.16,0001.76
2021-12-01 10:47:00,,0827.3,5.00,0.00,26.4,25.5,00.0,35.4,28.1,10.2,0000.0,0010.41,0003.14,0001.75
2021-12-01 10:48:00,,0827.3,5.01,0.00,26.4,25.4,00.0,35.4,28.2,10.1,0000.0,0010.47,0003.12,0001.69
2021-12-01 10:49:00,,0827.2,4.99,0.00,26.4,25.4,00.0,35.4,28.1,10.1,0000.0,0009.45,0003.04,0001.63
2021-12-01 10:50:00,,0827.3,5.01,0.00,26.4,25.4,00.0,35.4,28.1,10.0,0000.0,0009.18,0002.86,0001.54
2021-12-01 10:51:00,,0827.3,5.01,0.00,26.4,25.4,00.0,35.3,28.1,10.1,0000.0,0009.20,0002.68,0001.46
2021-12-01 10:52:00,,0827.2,4.99,0.00,26.4,25.4,00.0,35.3,28.1,10.1,0000.0,0009.28,0002.62,0001.39
2021-12-01 10:53:00,,0827.2,5.01,0.00,26.4,25.4,00.0,35.3,28.1,10.1,0000.0,0009.65,0002.59,0001.34
2021-12-01 10:54:00,,0827.2,5.00,0.00,26.4,25.4,00.0,35.3,28.1,10.0,0000.0,0009.49,0002.52,0001.30
2021-12-01 10:55:00,,0827.1,4.99,0.00,26.4,25.4,00.0,35.3,28.1,10.0,0000.0,0009.24,0002.48,0001.30
2021-12-01 10:56:00,,0827.1,5.02,0.00,26.3,25.4,00.0,35.3,28.1,10.0,0000.0,0009.26,0002.50,0001.30
2021-12-01 10:57:00,,0827.2,5.00,0.00,26.3,25.4,00.0,35.3,28.1,10.0,0000.0,0009.22,0002.50,0001.27
2021-12-01 10:58:00,,0827.2,4.99,0.00,26.3,25.4,00.0,35.3,28.1,10.0,0000.0,0009.12,0002.51,0001.23
2021-12-01 10:59:00,,0827.2,5.00,0.00,26.3,25.4,00.0,35.3,28.1,10.0,0000.0,0008.84,0002.43,0001.21
